Big Rapids, MI

12:20 AM EST on February 24, 2017 (GMT -0500)
Roben-Hood

Weather History for KRQB - March, 2013

Change the Weather History Date:

Friday, March 22, 2013

  Actual Average Record
Temperature  
Mean Temperature 30 °F -  
Max Temperature 35 °F 42 °F 81 °F (2012)
Min Temperature 24 °F 21 °F -4 °F (1989)
Degree Days  
Heating Degree Days 36    
Moisture  
Dew Point 18 °F    
Average Humidity 65    
Maximum Humidity 73    
Minimum Humidity 49    
Precipitation  
Precipitation 0.00 in - - ()
Sea Level Pressure  
Sea Level Pressure 29.95 in    
Wind  
Wind Speed 7 mph (NW)    
Max Wind Speed 12 mph    
Max Gust Speed 16 mph    
Visibility 10 miles    
Events      
Averages and records for this station are not official NWS values.
T = Trace of Precipitation, MM = Missing Value Source: NWS Daily Summary

Daily Weather History Graph

Daily Weather History Graph

Search for Another Location

Airport or City:

Trip Planner

Search our weather history database for the weather conditions in past years. The results will help you decide how hot, cold, wet, or windy it might be!

Date:

Astronomy

Mar. 22, 2013 Rise Set
Actual Time 7:41 AM EDT 7:57 PM EDT
Civil Twilight 7:12 AM EDT 8:25 PM EDT
Nautical Twilight 6:38 AM EDT 8:59 PM EDT
Astronomical Twilight 6:04 AM EDT 9:34 PM EDT
Moon 3:15 PM EDT (3/22) 4:49 AM EDT (3/22)
Length of Visible Light 13h 13m
Length of Day
12h 15m
Waxing Gibbous, 77% of the Moon is Illuminated
Mar 22
Waxing Gibbous
Mar 27
Full
Apr 3
Last Quarter
Apr 10
New
Apr 18
First Quarter

Hourly Weather History & Observations

Time (EDT) Temp. Windchill Dew Point Humidity Pressure Visibility Wind Dir Wind Speed Gust Speed Precip Events Conditions
12:15 AM 26.2 °F 19.6 °F 16.0 °F 65% 29.92 in 10.0 mi NW 5.8 mph - N/A   Overcast
12:35 AM 26.1 °F 18.4 °F 16.0 °F 66% 29.92 in 10.0 mi NW 6.9 mph - N/A   Overcast
12:55 AM 25.7 °F 19.0 °F 15.8 °F 66% 29.92 in 10.0 mi WNW 5.8 mph - N/A   Overcast
1:15 AM 25.2 °F 18.3 °F 16.0 °F 68% 29.92 in 10.0 mi West 5.8 mph - N/A   Overcast
1:35 AM 24.6 °F 17.7 °F 16.9 °F 72% 29.93 in 10.0 mi WNW 5.8 mph - N/A   Overcast
1:54 AM 25.2 °F 18.3 °F 16.7 °F 70% 29.93 in 10.0 mi WNW 5.8 mph - N/A   Overcast
2:15 AM 25.7 °F 19.0 °F 16.3 °F 68% 29.92 in 10.0 mi NW 5.8 mph - N/A   Overcast
2:35 AM 25.7 °F 18.0 °F 16.0 °F 67% 29.93 in 10.0 mi NW 6.9 mph - N/A   Overcast
2:55 AM 25.5 °F 19.9 °F 16.2 °F 68% 29.93 in 10.0 mi NW 4.6 mph - N/A   Overcast
3:15 AM 25.0 °F 19.3 °F 16.3 °F 70% 29.93 in 10.0 mi WNW 4.6 mph - N/A   Overcast
3:35 AM 24.8 °F 19.1 °F 16.7 °F 71% 29.93 in 10.0 mi WNW 4.6 mph - N/A   Overcast
3:55 AM 24.8 °F 17.9 °F 16.7 °F 71% 29.94 in 10.0 mi WNW 5.8 mph - N/A   Overcast
4:15 AM 25.2 °F 18.3 °F 16.7 °F 70% 29.94 in 10.0 mi NW 5.8 mph - N/A   Overcast
4:35 AM 25.3 °F 18.5 °F 16.5 °F 69% 29.93 in 10.0 mi NW 5.8 mph - N/A   Overcast
4:55 AM 25.3 °F 18.5 °F 16.5 °F 69% 29.93 in 10.0 mi NNW 5.8 mph - N/A   Overcast
5:15 AM 25.3 °F 18.5 °F 16.7 °F 70% 29.93 in 10.0 mi NW 5.8 mph - N/A   Overcast
5:35 AM 25.5 °F 17.8 °F 16.5 °F 69% 29.93 in 10.0 mi NNW 6.9 mph - N/A   Overcast
5:55 AM 25.5 °F 18.7 °F 16.5 °F 69% 29.93 in 10.0 mi NW 5.8 mph - N/A   Overcast
6:15 AM 25.5 °F 16.9 °F 16.9 °F 70% 29.94 in 10.0 mi NW 8.1 mph - N/A   Overcast
6:35 AM 25.5 °F 16.9 °F 16.7 °F 69% 29.94 in 10.0 mi NW 8.1 mph - N/A   Overcast
6:55 AM 25.5 °F 17.8 °F 16.9 °F 70% 29.94 in 10.0 mi NW 6.9 mph - N/A   Overcast
7:15 AM 25.5 °F 18.7 °F 17.1 °F 70% 29.95 in 10.0 mi NW 5.8 mph - N/A   Overcast
7:35 AM 25.5 °F 18.7 °F 17.2 °F 71% 29.95 in 10.0 mi NW 5.8 mph - N/A   Overcast
7:55 AM 25.3 °F 18.5 °F 17.4 °F 72% 29.95 in 10.0 mi NW 5.8 mph - N/A   Overcast
8:15 AM 25.3 °F 17.6 °F 17.2 °F 71% 29.95 in 10.0 mi NW 6.9 mph - N/A   Overcast
8:35 AM 25.2 °F 19.5 °F 17.1 °F 71% 29.95 in 10.0 mi WNW 4.6 mph - N/A   Overcast
8:55 AM 25.3 °F 18.5 °F 16.9 °F 70% 29.95 in 10.0 mi NNW 5.8 mph - N/A   Overcast
9:15 AM 25.5 °F 18.7 °F 16.7 °F 69% 29.95 in 10.0 mi NNW 5.8 mph - N/A   Overcast
9:35 AM 25.7 °F 18.0 °F 16.5 °F 68% 29.95 in 10.0 mi NNW 6.9 mph - N/A   Overcast
9:55 AM 26.1 °F 17.6 °F 15.8 °F 65% 29.95 in 10.0 mi NW 8.1 mph - N/A   Overcast
10:15 AM 26.6 °F 18.2 °F 16.3 °F 65% 29.95 in 10.0 mi WNW 8.1 mph - N/A   Overcast
10:35 AM 27.3 °F 17.7 °F 16.7 °F 64% 29.96 in 10.0 mi NNW 10.4 mph - N/A   Overcast
10:55 AM 27.5 °F 18.0 °F 16.9 °F 64% 29.95 in 10.0 mi NNW 10.4 mph - N/A   Overcast
11:15 AM 28.4 °F 20.4 °F 17.4 °F 63% 29.95 in 10.0 mi NNW 8.1 mph - N/A   Overcast
11:35 AM 28.9 °F 21.1 °F 17.2 °F 62% 29.95 in 10.0 mi NW 8.1 mph - N/A   Overcast
11:55 AM 29.5 °F 19.9 °F 17.4 °F 61% 29.96 in 10.0 mi NW 11.5 mph - N/A   Overcast
12:15 PM 29.8 °F 22.2 °F 17.6 °F 60% 29.96 in 10.0 mi NW 8.1 mph - N/A   Overcast
12:35 PM 30.2 °F 22.6 °F 17.8 °F 60% 29.96 in 10.0 mi WNW 8.1 mph 16.1 mph N/A   Overcast
12:55 PM 30.7 °F 22.0 °F 18.0 °F 59% 29.95 in 10.0 mi NNW 10.4 mph - N/A   Overcast
1:15 PM 31.3 °F 23.3 °F 18.3 °F 59% 29.95 in 10.0 mi NW 9.2 mph - N/A   Overcast
1:35 PM 31.8 °F 25.4 °F 18.3 °F 57% 29.95 in 10.0 mi North 6.9 mph - N/A   Overcast
1:55 PM 32.7 °F 25.7 °F 17.4 °F 53% 29.96 in 10.0 mi NNW 8.1 mph - N/A   Overcast
2:15 PM 34.0 °F 28.8 °F 17.6 °F 51% 29.96 in 10.0 mi WNW 5.8 mph - N/A   Overcast
2:35 PM 34.0 °F 29.8 °F 18.3 °F 53% 29.96 in 10.0 mi West 4.6 mph - N/A   Mostly Cloudy
2:55 PM 34.0 °F - 17.8 °F 52% 29.95 in 10.0 mi Calm Calm - N/A   Scattered Clouds
3:15 PM 34.2 °F 30.0 °F 18.3 °F 52% 29.94 in 10.0 mi NW 4.6 mph - N/A   Clear
3:35 PM 34.5 °F 28.6 °F 18.0 °F 51% 29.95 in 10.0 mi NW 6.9 mph - N/A   Scattered Clouds
3:55 PM 34.7 °F 27.5 °F 18.1 °F 51% 29.94 in 10.0 mi WNW 9.2 mph - N/A   Scattered Clouds
4:15 PM 35.1 °F 27.9 °F 17.8 °F 49% 29.94 in 10.0 mi WNW 9.2 mph - N/A   Clear
4:35 PM 35.6 °F 28.6 °F 18.0 °F 49% 29.94 in 10.0 mi West 9.2 mph - N/A   Clear
4:55 PM 35.1 °F 28.6 °F 18.9 °F 52% 29.93 in 10.0 mi NW 8.1 mph - N/A   Clear
5:15 PM 35.1 °F 27.9 °F 19.2 °F 53% 29.94 in 10.0 mi NNW 9.2 mph - N/A   Scattered Clouds
5:35 PM 34.3 °F 27.0 °F 20.5 °F 57% 29.94 in 10.0 mi NW 9.2 mph - N/A   Mostly Cloudy
5:55 PM 33.8 °F 25.3 °F 19.9 °F 57% 29.94 in 10.0 mi NNW 11.5 mph - N/A   Scattered Clouds
6:15 PM 33.1 °F 25.5 °F 20.7 °F 60% 29.94 in 10.0 mi NNW 9.2 mph - N/A   Scattered Clouds
6:35 PM 32.9 °F 25.3 °F 20.7 °F 61% 29.95 in 10.0 mi NNW 9.2 mph - N/A   Mostly Cloudy
6:55 PM 32.4 °F 24.6 °F 21.4 °F 64% 29.96 in 10.0 mi NW 9.2 mph - N/A   Overcast
7:15 PM 32.2 °F 23.8 °F 21.0 °F 63% 29.96 in 10.0 mi WNW 10.4 mph - N/A   Overcast
7:35 PM 32.0 °F 23.6 °F 21.0 °F 64% 29.97 in 10.0 mi NNW 10.4 mph - N/A   Overcast
7:55 PM 31.6 °F 24.4 °F 21.4 °F 66% 29.98 in 10.0 mi WNW 8.1 mph - N/A   Overcast
8:15 PM 31.5 °F 22.9 °F 21.9 °F 68% 29.98 in 10.0 mi West 10.4 mph - N/A   Overcast
8:35 PM 31.1 °F 23.7 °F 21.4 °F 67% 29.99 in 10.0 mi NNW 8.1 mph - N/A   Overcast
8:55 PM 31.1 °F 23.1 °F 22.1 °F 69% 29.99 in 10.0 mi WNW 9.2 mph - N/A   Overcast
9:15 PM 30.9 °F 22.8 °F 21.7 °F 69% 29.99 in 10.0 mi WNW 9.2 mph - N/A   Overcast
9:35 PM 30.9 °F 22.8 °F 21.6 °F 68% 30.00 in 10.0 mi WNW 9.2 mph - N/A   Overcast
9:55 PM 30.7 °F 23.3 °F 21.7 °F 69% 30.00 in 10.0 mi NW 8.1 mph - N/A   Overcast
10:15 PM 30.2 °F 23.4 °F 21.6 °F 70% 30.00 in 10.0 mi NW 6.9 mph - N/A   Overcast
10:35 PM 30.2 °F 21.9 °F 22.1 °F 72% 30.00 in 10.0 mi NNW 9.2 mph - N/A   Overcast
10:55 PM 30.0 °F 23.2 °F 22.3 °F 73% 30.01 in 10.0 mi NW 6.9 mph - N/A   Overcast
11:15 PM 29.8 °F 23.9 °F 22.1 °F 73% 30.01 in 10.0 mi NNW 5.8 mph 9.2 mph N/A   Overcast
11:35 PM 29.8 °F 23.9 °F 22.3 °F 73% 30.01 in 10.0 mi NNW 5.8 mph - N/A   Overcast
11:55 PM 29.7 °F 21.3 °F 22.1 °F 73% 30.01 in 10.0 mi NNW 9.2 mph - N/A   Overcast